Regional Weather Roundup
Issued by NWS

Home | Current Version | Previous Version | Graphics & Text | Print | Product List | Glossary On
Versions: 1 2 3 4 5 6 7 8 9 10 11 12 13 14 15 16 17 18 19 20 21 22 23 24 25 26 27 28 29 30 31 32 33 34 35 36 37 38 39 40 41 42 43 44 45 46 47 48 49 50
000
ASUS45 KBOI 030410
RWRID
WEATHER ROUNDUP FOR IDAHO
NATIONAL WEATHER SERVICE BOISE ID
1000 PM MDT TUE SEP 02 2014

NOTE: "FAIR" INDICATES FEW OR NO CLOUDS BELOW 12000 FEET
WITH NO SIGNIFICANT WEATHER AND/OR OBSTRUCTIONS TO VISIBILITY

IDZ012-014-030500-
SOUTHWEST IDAHO


CITY           SKY/WX    TMP DP  RH WIND       PRES   REMARKS
BOISE          CLEAR     75  32  20 SE5       29.68R
CALDWELL       CLEAR     68  43  40 W9        29.67S
MOUNTAIN HOME  CLEAR     71  40  32 SE7       29.69R
$$

IDZ016-017-030500-
SOUTHCENTRAL IDAHO


CITY           SKY/WX    TMP DP  RH WIND       PRES   REMARKS
BURLEY         CLEAR     64  47  53 SE5       29.78F
JEROME         CLEAR     66  43  43 NE12      29.78S
TWIN FALLS     CLEAR     59  47  64 S5        29.78S
$$

IDZ019>023-030500-
SOUTHEAST IDAHO


CITY           SKY/WX    TMP DP  RH WIND       PRES   REMARKS
IDAHO FALLS    CLEAR     68  33  27 S7        29.85S
POCATELLO      CLEAR     62  41  46 E7        29.84F
REXBURG        CLEAR     64  32  30 S5        29.85F
$$

IDZ006-010-011-018-031-032-030500-
CENTRAL IDAHO MOUNTAINS


CITY           SKY/WX    TMP DP  RH WIND       PRES   REMARKS
MCCALL         CLEAR     56  32  40 NE3       29.80F
HAILEY         CLEAR     57  37  47 W6        29.88S
STANLEY          N/A     49  27  42 VRB3      29.93F
SALMON         CLEAR     66  30  26 W6        29.74R
CHALLIS        CLEAR     62  28  27 SW6       29.82F
$$

IDZ002-004-006-007-026-030500-
NORTHERN IDAHO


CITY           SKY/WX    TMP DP  RH WIND       PRES   REMARKS
LEWISTON       PTCLDY    75  41  29 W18G30    29.67R
LOWELL           N/A     63  54  72 CALM      29.69R
COEUR D`ALENE  PTCLDY    64  43  45 S8        29.66S
MULLAN PASS    CLOUDY    51  32  48 SW8       29.82S
$$


USA.gov is the U.S. government's official web portal to all federal, state and local government web resources and services.